2020�N�x�@��C������Ԃɂ�鑪�茋��,,,,,,,,,,,,,,,
,,,,,,,,,,,,,,,
�P�@����n�_,,,,,,,,,,,,,,,
���J�s���h�i���J�s���h���O����8�Ԓn3),,,,,,,,,,,,,,,
,,,,,,,,,,,,,,,
�Q�@���Ԓl�i�m��l�j��2020�N7��9���`2020�N7��31��,,,,,,,,,,,,,,,
,,,,,,,,,,,,,,,
,�N,��,��,��,SO2,SPM,Ox,CO,NO,NO2,PM2.5,���x,���x,����,����
,,,,,ppm,mg/m3,ppm,ppm,ppm,ppm,��g/m3,��,%,�ő�,m/s
H03,2020,7,9,1,�Z����,0.018,0.018,�Z����,�Z����,�Z����,6,24.4,91.9,E,1.1
H03,2020,7,9,2,0.001,0.016,0.017,0.1,0.003,0.005,5,24.5,90.3,ESE,0.7
H03,2020,7,9,3,0.001,0.013,0.018,0.1,0.002,0.005,4,24.1,93.6,ESE,0.6
H03,2020,7,9,4,0.001,0.015,0.017,0.1,0.003,0.006,5,24,95.7,SE,0.8
H03,2020,7,9,5,0.001,0.009,0.016,0.1,0.005,0.008,5,23.8,95.2,SE,0.7
H03,2020,7,9,6,0.001,0.007,0.019,0.1,0.007,0.015,3,23.6,95,ESE,0.5
H03,2020,7,9,7,0.001,0.008,0.013,0.2,0.009,0.015,2,24.1,94.5,CALM,0
H03,2020,7,9,8,0.001,0.008,0.01,0.2,0.008,0.014,3,24.4,93.6,S,1.4
H03,2020,7,9,9,0.001,0.013,0.013,0.2,0.009,0.013,5,25.1,87.3,SSE,0.8
H03,2020,7,9,10,0.001,0.012,0.023,0.2,0.009,0.016,6,24.3,87.8,SSE,0.8
H03,2020,7,9,11,0.001,0.011,0.026,0.2,0.009,0.015,3,24.9,84,E,0.7
H03,2020,7,9,12,0.001,0.01,0.026,0.2,0.008,0.013,4,25.2,86.9,SE,0.5
H03,2020,7,9,13,0.001,0.008,0.026,0.2,0.006,0.013,6,24.8,86.6,SE,0.5
H03,2020,7,9,14,0.001,0.014,0.029,0.2,0.006,0.012,6,24.3,90.6,SSE,0.9
H03,2020,7,9,15,0.001,0.009,0.026,0.1,0.005,0.01,5,24.2,94.5,ESE,0.8
H03,2020,7,9,16,0.001,0.005,0.02,0.2,0.007,0.01,3,24.3,90.3,E,0.7
H03,2020,7,9,17,0.001,0.006,0.015,0.2,0.008,0.011,3,23.9,93.3,ESE,0.3
H03,2020,7,9,18,0.001,0.005,0.015,0.2,0.006,0.008,1,23.4,95.5,ESE,0.5
H03,2020,7,9,19,0.001,0.004,0.014,0.2,0.006,0.008,0,23.6,93.9,E,0.5
H03,2020,7,9,20,0.001,0.002,0.013,0.2,0.007,0.01,2,23.6,94.3,E,0.6
H03,2020,7,9,21,0.001,0.004,0.008,0.2,0.008,0.014,2,23.7,93.7,CALM,0.2
H03,2020,7,9,22,0.001,0.006,0.008,0.2,0.008,0.012,2,23.9,94.3,CALM,0
H03,2020,7,9,23,0.001,0.004,0.007,0.2,0.007,0.013,2,23.7,93.8,CALM,0.2
H03,2020,7,9,24,0.001,0.005,0.007,0.2,0.005,0.011,2,23.7,94.3,ESE,0.4
H03,2020,7,10,1,0.001,0.008,0.009,0.1,0.004,0.009,2,23.6,95.6,ESE,0.6
H03,2020,7,10,2,0.001,0.007,0.009,0.1,0.005,0.008,3,23.6,95.1,CALM,0.1
H03,2020,7,10,3,0.001,0.008,0.007,0.1,0.005,0.01,3,23.4,94.9,CALM,0.2
H03,2020,7,10,4,0.001,0.006,0.008,0.1,0.006,0.009,2,23.4,95,CALM,0
H03,2020,7,10,5,0.001,0.008,0.005,0.1,0.011,0.013,4,23.6,95.4,SE,0.6
H03,2020,7,10,6,0.001,0.008,0.005,0.1,0.013,0.011,4,23.6,95.6,SE,0.6
H03,2020,7,10,7,0.001,0.009,0.007,0.2,0.008,0.009,4,24,91.6,ESE,0.7
H03,2020,7,10,8,0.001,0.007,0.009,0.2,0.01,0.007,2,24.9,88.4,ESE,0.7
H03,2020,7,10,9,0.001,0.006,0.01,0.1,0.009,0.006,4,25.8,80.9,ESE,1.4
H03,2020,7,10,10,0.001,0.005,0.01,0.1,0.009,0.006,3,25.8,84.7,SE,0.9
H03,2020,7,10,11,0.001,0.005,0.01,0.1,0.01,0.008,2,26.5,81.1,SE,0.9
H03,2020,7,10,12,0.001,0.008,0.013,0.2,0.011,0.007,5,28.2,72.7,SSE,1
H03,2020,7,10,13,0.001,0.013,0.018,0.1,0.008,0.007,6,29.4,69.6,SE,1.3
H03,2020,7,10,14,0.001,0.015,0.021,0.1,0.007,0.007,6,29.7,68.9,SE,1.1
H03,2020,7,10,15,0.001,0.012,0.018,0.1,0.006,0.005,5,28.5,74.5,ESE,1.5
H03,2020,7,10,16,0.001,0.013,0.013,0.1,0.006,0.004,6,27,90.9,SE,0.9
H03,2020,7,10,17,0.001,0.021,0.009,0.1,0.007,0.004,9,26.9,89.2,SSE,1.5
H03,2020,7,10,18,0.001,0.034,0.008,0.1,0.006,0.004,11,27,88.5,SE,1.5
H03,2020,7,10,19,0.001,0.03,0.008,0.1,0.004,0.003,9,26.7,89.8,ESE,1.7
H03,2020,7,10,20,0.001,0.028,0.008,0.1,0.004,0.003,8,26.6,90.6,SSE,1.8
H03,2020,7,10,21,0.001,0.024,0.01,0.1,0.005,0.003,8,26.5,91,SE,1.7
H03,2020,7,10,22,0.001,0.026,0.008,0.1,0.004,0.004,8,26.3,91.7,SE,1.5
H03,2020,7,10,23,0.001,0.023,0.008,0.1,0.002,0.004,7,26.3,93.2,SE,1.6
H03,2020,7,10,24,0.001,0.025,0.009,0.1,0.002,0.003,5,26.1,94.5,SSE,1.9
H03,2020,7,11,1,0.001,0.026,0.009,0.1,0.002,0.003,6,26,94.1,SE,1.5
H03,2020,7,11,2,0.001,0.029,0.008,0.1,0.002,0.003,6,25.9,93.3,SE,1.4
H03,2020,7,11,3,0.001,0.027,0.008,0.1,0.002,0.003,5,26.1,92.6,SE,1.1
H03,2020,7,11,4,0.001,0.028,0.008,0.1,0.002,0.003,7,26.1,92.4,SE,1.4
H03,2020,7,11,5,0.001,0.027,0.008,0.1,0.002,0.004,7,25.9,93.6,SE,1.6
H03,2020,7,11,6,0.001,0.03,0.007,0.1,0.004,0.004,7,25.8,94.9,ESE,1.2
H03,2020,7,11,7,0.001,0.031,0.007,0.1,0.005,0.005,4,25.9,94.3,SSE,0.8
H03,2020,7,11,8,0,0.029,0.009,0.1,0.005,0.005,6,26.1,90.7,SE,0.8
H03,2020,7,11,9,0.001,0.021,0.014,0.1,0.004,0.005,6,28,76.8,SSE,1.2
H03,2020,7,11,10,0.001,0.018,0.017,0.2,0.005,0.006,8,26.6,88.4,ESE,1.2
H03,2020,7,11,11,0.001,0.029,0.013,0.2,0.004,0.005,7,26.6,91.4,SE,0.9
H03,2020,7,11,12,0.001,0.027,0.008,0.1,0.006,0.005,8,27.2,87.3,SSE,1.6
H03,2020,7,11,13,0.001,0.018,0.01,0.1,0.006,0.004,6,28.3,81.5,SSE,1.1
H03,2020,7,11,14,0.001,0.018,0.014,0.1,0.004,0.003,6,29.4,75.1,SE,1
H03,2020,7,11,15,0.001,0.014,0.017,0.1,0.004,0.004,3,29.6,72.1,SE,1.2
H03,2020,7,11,16,0.001,0.013,0.019,0.1,0.003,0.003,5,29.2,73.8,SE,1.4
H03,2020,7,11,17,0.001,0.021,0.019,0.1,0.002,0.003,11,28.7,76.6,SE,1.4
H03,2020,7,11,18,0.001,0.032,0.016,0.1,0.002,0.003,14,27.8,82.3,ESE,1.3
H03,2020,7,11,19,0.001,0.037,0.013,0.1,0.002,0.003,14,27,85.3,SE,0.8
H03,2020,7,11,20,0.001,0.038,0.011,0.1,0.001,0.004,13,26.8,87.8,SSE,1.1
H03,2020,7,11,21,0.001,0.039,0.007,0.1,0.002,0.007,12,26.7,89.8,SSE,0.5
H03,2020,7,11,22,0.001,0.035,0.007,0.2,0.003,0.007,12,26.5,89.8,E,0.3
H03,2020,7,11,23,0.001,0.036,0.005,0.2,0.002,0.007,13,26.1,90.6,SE,0.5
H03,2020,7,11,24,0.001,0.034,0.005,0.1,0.002,0.006,12,26.1,90.5,ESE,0.3
H03,2020,7,12,1,0.001,0.03,0.006,0.2,0.002,0.006,11,26,92.2,CALM,0.2
H03,2020,7,12,2,0.001,0.028,0.005,0.1,0.001,0.007,11,25.7,89.2,SSW,0.5
H03,2020,7,12,3,0.001,0.019,0.021,0.1,0.001,0.004,8,25.6,84.4,NNW,0.5
H03,2020,7,12,4,0.001,0.019,0.021,0.2,0,0.005,9,25.3,87.5,SW,0.5
H03,2020,7,12,5,0.001,0.027,0.014,0.2,0.001,0.008,11,25.1,90.1,CALM,0.2
H03,2020,7,12,6,0.001,0.013,0.021,0.2,0.001,0.007,4,26.1,68.9,NW,2.7
H03,2020,7,12,7,0.001,0.003,0.037,0.2,0.001,0.003,4,26.5,65.8,NW,1.8
H03,2020,7,12,8,0.001,0.005,0.037,0.2,0.001,0.004,2,27.9,57.6,NW,1.4
H03,2020,7,12,9,0.004,0.007,0.035,0.5,0.002,0.006,5,28.9,55.2,NW,1.8
H03,2020,7,12,10,0.003,0.01,0.037,0.4,0.002,0.005,5,29.6,54.6,NW,2.3
H03,2020,7,12,11,0.002,0.005,0.04,0.3,0.002,0.004,2,30.6,50.3,NNW,1.3
H03,2020,7,12,12,0.002,0.003,0.04,0.3,0.002,0.004,0,31,49.4,NW,1.6
H03,2020,7,12,13,0.002,0.006,0.04,0.2,0.001,0.003,3,30.8,48.2,WSW,1.9
H03,2020,7,12,14,0.001,0.002,0.041,0.2,0.002,0.001,-2,30.7,46.1,NW,1.7
H03,2020,7,12,15,0.001,0.008,0.042,0.2,0.001,0.002,7,30.5,45.3,NW,1.5
H03,2020,7,12,16,0.002,0.006,0.041,0.3,0.001,0.004,4,28.8,50.2,NW,1.4
H03,2020,7,12,17,0.002,0.008,0.04,0.3,0.002,0.004,7,27,50.3,NW,2.9
H03,2020,7,12,18,0.001,0.007,0.041,0.2,0.002,0.003,6,25.7,54.3,NW,2.7
H03,2020,7,12,19,0.001,0.011,0.038,0.2,0.002,0.003,8,25.1,55.6,NW,2.1
H03,2020,7,12,20,0.001,0.009,0.036,0.2,0.001,0.003,24,24.5,56.4,NW,2.6
H03,2020,7,12,21,0.001,0.01,0.035,0.2,0,0.003,8,24.3,56.6,NW,2.3
H03,2020,7,12,22,0.001,0.01,0.033,0.2,0,0.003,7,23.9,59.5,NW,2.5
H03,2020,7,12,23,0.001,0.008,0.031,0.2,0,0.004,6,23.6,60.7,NW,1.5
H03,2020,7,12,24,0.001,0.008,0.031,0.1,0,0.004,6,23.3,62.2,NW,2.4
H03,2020,7,13,1,0.001,0.01,0.033,0.1,0,0.002,7,22.8,64,NW,1.8
H03,2020,7,13,2,0.001,0.008,0.031,0.1,0,0.003,5,22.8,64.8,NW,1.1
H03,2020,7,13,3,0.001,0.008,0.024,0.2,0.001,0.008,6,22.7,66.8,ENE,0.3
H03,2020,7,13,4,0.001,0.01,0.019,0.2,0.003,0.011,6,22.7,67.5,CALM,0.2
H03,2020,7,13,5,0.001,0.011,0.014,0.2,0.006,0.015,7,22.5,69.2,SE,0.3
H03,2020,7,13,6,0.001,0.012,0.013,0.2,0.01,0.015,8,22.8,68.9,CALM,0.2
H03,2020,7,13,7,0.001,0.011,0.013,0.3,0.01,0.016,7,23.3,66.4,NE,0.5
H03,2020,7,13,8,0.001,0.012,0.01,0.3,0.013,0.017,7,22.8,67.7,N,0.7
H03,2020,7,13,9,0.001,0.011,0.016,0.2,0.006,0.014,7,22.8,70.1,NNW,1.4
H03,2020,7,13,10,0.001,0.015,0.014,0.3,0.012,0.017,7,23,70.8,N,1
H03,2020,7,13,11,0.002,0.015,0.011,0.3,0.021,0.022,9,23,73.1,N,0.9
H03,2020,7,13,12,0.001,0.015,0.017,0.4,0.015,0.017,8,22.2,82.1,CALM,0.2
H03,2020,7,13,13,0.001,0.016,0.017,0.4,0.013,0.021,8,22.2,88,CALM,0.2
H03,2020,7,13,14,0.001,0.014,0.022,0.3,0.005,0.018,8,22.4,88.2,S,0.9
H03,2020,7,13,15,0.001,0.017,0.025,0.2,0.003,0.016,11,22.2,91.2,SW,0.4
H03,2020,7,13,16,0.002,0.015,0.012,0.4,0.008,0.026,13,21.3,93.6,CALM,0.2
H03,2020,7,13,17,0.001,0.013,0.014,0.3,0.01,0.028,8,21.6,90.4,S,0.3
H03,2020,7,13,18,0.001,0.013,0.018,0.3,0.004,0.024,7,21.9,89,SE,0.4
H03,2020,7,13,19,0.001,0.012,0.03,0.3,0.003,0.016,6,21.4,90,SSW,0.5
H03,2020,7,13,20,0.001,0.012,0.025,0.3,0.005,0.02,9,21.5,94,ENE,0.4
H03,2020,7,13,21,0.001,0.012,0.022,0.3,0.004,0.019,6,21.5,93,CALM,0.1
H03,2020,7,13,22,0.001,0.011,0.02,0.2,0.005,0.014,6,21.3,92.6,E,0.9
H03,2020,7,13,23,0.001,0.008,0.027,0.2,0.002,0.009,5,21.2,93.3,ENE,0.8
H03,2020,7,13,24,0.001,0.008,0.032,0.2,0.001,0.007,4,21.5,93.7,SSE,0.3
H03,2020,7,14,1,0.001,0.011,0.025,0.2,0.002,0.015,6,21.6,95.8,CALM,0
H03,2020,7,14,2,0.001,0.011,0.016,0.2,0.005,0.024,8,21.9,96.8,E,0.4
H03,2020,7,14,3,0.001,0.01,0.031,0.1,0.002,0.006,5,22.5,94.6,E,0.9
H03,2020,7,14,4,0.001,0.008,0.029,0.1,0.002,0.004,4,22.8,95.6,E,1.3
H03,2020,7,14,5,0.001,0.008,0.023,0.1,0.003,0.004,6,23.4,96.2,ESE,0.9
H03,2020,7,14,6,0.001,0.009,0.016,0.1,0.005,0.006,5,23.6,96.5,ESE,1
H03,2020,7,14,7,0.001,0.011,0.012,0.2,0.006,0.008,6,24.2,96.9,ESE,0.5
H03,2020,7,14,8,0.001,0.008,0.009,0.2,0.008,0.01,4,24.5,94.1,ESE,0.6
H03,2020,7,14,9,0.001,0.012,0.009,0.2,0.01,0.009,5,25.1,92.5,SSE,1.1
H03,2020,7,14,10,0.001,0.013,0.009,0.2,0.012,0.009,5,25.5,90.1,SE,1.5
H03,2020,7,14,11,0.001,0.014,0.008,0.2,0.014,0.011,6,26.3,88.5,SSE,0.8
H03,2020,7,14,12,0.001,0.013,0.008,0.2,0.015,0.012,4,26.4,90,S,1.2
H03,2020,7,14,13,0.002,0.011,0.007,0.2,0.013,0.01,4,24.6,87.4,SE,0.8
H03,2020,7,14,14,0.001,0.01,0.011,0.1,0.009,0.008,5,25.9,83.6,SSE,0.8
H03,2020,7,14,15,0.001,0.015,0.01,0.1,0.011,0.009,7,25.4,92.8,ESE,1.3
H03,2020,7,14,16,0.001,0.015,0.01,0.1,0.011,0.007,6,26,89.5,ESE,0.7
H03,2020,7,14,17,0.001,0.013,0.008,0.2,0.009,0.009,5,26.1,92.5,NNW,0.6
H03,2020,7,14,18,0.001,0.013,0.007,0.3,0.007,0.013,5,26.1,87.5,S,1.4
H03,2020,7,14,19,0.001,0.01,0.01,0.2,0.003,0.012,5,26,84.5,S,0.9
H03,2020,7,14,20,0.001,0.013,0.005,0.3,0.006,0.017,6,25.2,87.7,SSE,0.7
H03,2020,7,14,21,0.001,0.009,0.01,0.2,0.004,0.011,4,24.5,89.5,SSE,0.5
H03,2020,7,14,22,0.001,0.009,0.01,0.2,0.004,0.013,5,24.7,89.3,SSE,0.8
H03,2020,7,14,23,0.002,0.012,0.011,0.2,0.004,0.012,5,24.2,90.4,SSE,0.3
H03,2020,7,14,24,0.001,0.009,0.01,0.2,0.002,0.015,5,24.2,87.8,S,0.4
H03,2020,7,15,1,0.001,0.01,0.027,0.2,0,0.008,3,23.9,80.4,SSW,0.8
H03,2020,7,15,2,0.001,0.012,0.03,0.2,0,0.008,5,23.4,82.7,SSW,1.3
H03,2020,7,15,3,0.001,0.013,0.029,0.2,0,0.007,6,22.9,83.2,WSW,0.6
H03,2020,7,15,4,0.002,0.014,0.027,0.2,0.001,0.008,8,22.9,82.9,SW,1
H03,2020,7,15,5,0.001,0.012,0.026,0.2,0,0.008,6,23,81.1,SSW,1.1
H03,2020,7,15,6,0.001,0.01,0.023,0.2,0.001,0.009,7,23.3,78.8,SW,1.4
H03,2020,7,15,7,0.001,0.013,0.024,0.2,0.001,0.007,8,23.9,75.9,SW,1.3
H03,2020,7,15,8,0.001,0.012,0.022,0.2,0.002,0.008,6,24.5,72.3,SW,1.1
H03,2020,7,15,9,0.001,0.011,0.021,0.2,0.003,0.008,5,25.2,70.7,SW,1.4
H03,2020,7,15,10,0.001,0.013,0.022,0.2,0.004,0.008,6,25.3,70.7,WSW,1.3
H03,2020,7,15,11,0.001,0.013,0.022,0.2,0.003,0.009,8,26,64.9,SW,1.8
H03,2020,7,15,12,0.001,0.009,0.027,0.2,0.004,0.007,5,27.4,59.5,SW,1.7
H03,2020,7,15,13,0.002,0.01,0.03,0.2,0.003,0.007,5,28.3,55.5,SSW,2
H03,2020,7,15,14,0.001,0.01,0.035,0.2,0.002,0.006,5,28.1,58.9,SW,1.8
H03,2020,7,15,15,0.002,0.009,0.038,0.2,0.002,0.006,7,29.4,54.1,SW,1.8
H03,2020,7,15,16,0.002,0.01,0.039,0.2,0.002,0.007,4,29.3,52.9,SW,1.3
H03,2020,7,15,17,0.003,0.007,0.031,0.4,0.003,0.007,4,28.4,56.2,NW,1.2
H03,2020,7,15,18,0.003,0.005,0.026,0.5,0.003,0.009,3,27.5,58.3,NW,0.9
H03,2020,7,15,19,0.002,0.003,0.024,0.3,0.002,0.009,4,26.5,62,NW,0.9
H03,2020,7,15,20,0.002,0.004,0.024,0.2,0.001,0.01,2,25.8,65.1,N,0.6
H03,2020,7,15,21,0.006,0.012,0.016,0.8,0.001,0.019,6,25.5,65.8,NW,0.8
H03,2020,7,15,22,0.006,0.013,0.013,0.8,0.001,0.02,8,24.8,69.9,SW,0.8
H03,2020,7,15,23,0.002,0.004,0.018,0.2,0.001,0.012,2,24.3,72.2,SSW,0.6
H03,2020,7,15,24,0.001,0.005,0.014,0.2,0.001,0.014,3,24,75.1,SSW,0.3
H03,2020,7,16,1,�Z����,0.007,0.01,�Z����,�Z����,�Z����,4,23.6,76.8,SSW,0.3
H03,2020,7,16,2,0.001,0.008,0.01,0.2,0.001,0.015,2,23.7,77.1,CALM,0.1
H03,2020,7,16,3,0.002,0.009,0.005,0.2,0.004,0.02,4,23.4,79.5,CALM,0.1
H03,2020,7,16,4,0.001,0.012,0.001,0.2,0.011,0.024,4,22.8,82.3,E,0.3
H03,2020,7,16,5,0.001,0.012,0.001,0.3,0.017,0.023,4,22.6,83.4,CALM,0.2
H03,2020,7,16,6,0.002,0.008,0.003,0.3,0.02,0.022,6,23.3,75.5,NW,0.4
H03,2020,7,16,7,0.001,0.007,0.012,0.2,0.009,0.018,4,23.7,72.3,N,0.7
H03,2020,7,16,8,0.001,0.007,0.017,0.2,0.007,0.014,3,24.5,68.6,NNW,1.1
H03,2020,7,16,9,0.002,0.005,0.025,0.2,0.004,0.009,4,25.8,57,NW,1
H03,2020,7,16,10,0.002,0.009,0.03,0.3,0.005,0.01,3,28.1,52.6,NW,1.4
H03,2020,7,16,11,0.002,0.009,0.036,0.2,0.004,0.009,6,30,48.5,NW,1
H03,2020,7,16,12,0.002,0.008,0.046,0.2,0.005,0.01,1,30.5,43.7,W,0.9
H03,2020,7,16,13,0.004,0.012,0.051,0.4,0.003,0.011,9,31.7,44.8,SSW,2.1
H03,2020,7,16,14,0.003,0.011,0.059,0.3,0.002,0.007,7,32.4,42.6,SSW,1.3
H03,2020,7,16,15,0.002,0.007,0.056,0.2,0.002,0.008,3,32.4,39.5,S,2.1
H03,2020,7,16,16,0.002,0.012,0.054,0.2,0.003,0.011,9,30.8,46.8,S,2.2
H03,2020,7,16,17,0.002,0.007,0.047,0.2,0.003,0.011,7,29.4,54.5,SSE,2.3
H03,2020,7,16,18,0.001,0.005,0.038,0.2,0.003,0.009,6,28.2,61.6,SE,1.4
H03,2020,7,16,19,0.001,0.003,0.04,0.2,0.002,0.007,4,27,69,SE,1.1
H03,2020,7,16,20,0.001,0.003,0.038,0.2,0.002,0.008,4,26.2,71,ESE,0.7
H03,2020,7,16,21,0.001,0.006,0.036,0.2,0.002,0.007,4,25.7,69.7,ESE,1
H03,2020,7,16,22,0.001,0.009,0.038,0.2,0.002,0.007,7,25.3,73.9,E,1.1
H03,2020,7,16,23,0.001,0.012,0.04,0.2,0.001,0.005,8,25.1,74.8,ESE,1.4
H03,2020,7,16,24,0.001,0.013,0.039,0.2,0.001,0.005,9,24.9,76.3,ESE,0.8
H03,2020,7,17,1,0.001,0.011,0.035,0.2,0.001,0.007,8,24.4,80.2,E,0.5
H03,2020,7,17,2,0.001,0.01,0.031,0.2,0.001,0.007,5,24.2,81,ENE,0.8
H03,2020,7,17,3,0.001,0.011,0.031,0.2,0.001,0.006,6,23.4,88.5,SE,0.3
H03,2020,7,17,4,0.001,0.011,0.029,0.2,0.003,0.008,4,23,91.2,E,0.5
H03,2020,7,17,5,0.001,0.01,0.024,0.2,0.005,0.012,5,22.8,89.4,ENE,0.5
H03,2020,7,17,6,0.001,0.007,0.024,0.2,0.007,0.013,3,22.2,90.2,CALM,0.2
H03,2020,7,17,7,0.001,0.007,0.019,0.3,0.009,0.02,3,22.8,90.1,NE,0.7
H03,2020,7,17,8,0.001,0.01,0.012,0.3,0.011,0.02,6,22.7,90.7,CALM,0.2
H03,2020,7,17,9,0.001,0.008,0.021,0.3,0.007,0.015,5,23.3,81.1,N,0.8
H03,2020,7,17,10,0.001,0.012,0.025,0.3,0.008,0.013,6,23.7,86.3,NNE,0.4
H03,2020,7,17,11,0.001,0.013,0.02,0.3,0.012,0.02,8,23.5,89.9,ESE,0.3
H03,2020,7,17,12,0.001,0.014,0.022,0.4,0.012,0.023,8,23.6,88,NE,0.3
H03,2020,7,17,13,0.001,0.013,0.024,0.3,0.007,0.02,6,23.1,89.9,NNW,0.3
H03,2020,7,17,14,0.001,0.009,0.026,0.2,0.005,0.015,5,23.9,89.8,SSW,0.5
H03,2020,7,17,15,0.001,0.011,0.029,0.3,0.002,0.013,5,23.9,94.2,SW,0.4
H03,2020,7,17,16,0.001,0.01,0.027,0.3,0.002,0.014,5,23.4,94.4,CALM,0.2
H03,2020,7,17,17,0.001,0.009,0.028,0.3,0.003,0.019,6,23.3,94,WNW,0.4
H03,2020,7,17,18,0.001,0.013,0.024,0.4,0.003,0.021,7,23.6,95.1,NW,0.4
H03,2020,7,17,19,0.004,0.017,0.015,0.5,0.004,0.03,9,24,91.6,CALM,0.2
H03,2020,7,17,20,0.001,0.005,0.026,0.2,0.004,0.01,2,24.2,87.5,E,1.3
H03,2020,7,17,21,0.001,0.007,0.026,0.2,0.003,0.008,2,23.9,89.9,E,0.9
H03,2020,7,17,22,0.001,0.005,0.026,0.2,0.002,0.006,2,23.9,89.3,E,1
H03,2020,7,17,23,0.001,0.003,0.025,0.2,0.002,0.005,2,24,88.9,E,0.8
H03,2020,7,17,24,0.001,0.001,0.024,0.2,0.002,0.006,2,24.2,88.4,E,0.6
H03,2020,7,18,1,0.001,0.007,0.02,0.2,0.002,0.008,3,23.9,92.8,E,0.5
H03,2020,7,18,2,0.001,0.004,0.022,0.2,0.001,0.006,2,23.8,92.6,E,0.8
H03,2020,7,18,3,0.001,0.004,0.022,0.2,0.001,0.005,1,23.9,92.4,ESE,0.6
H03,2020,7,18,4,0.001,0.006,0.018,0.2,0.002,0.009,3,23.7,94.6,CALM,0.2
H03,2020,7,18,5,0.001,0.002,0.022,0.2,0.002,0.005,1,24.2,89.8,E,1.2
H03,2020,7,18,6,0.001,0.002,0.021,0.2,0.003,0.007,2,24.3,90.9,ENE,0.3
H03,2020,7,18,7,0.001,0.007,0.012,0.2,0.008,0.016,2,23.6,98.5,E,0.3
H03,2020,7,18,8,0.001,0.004,0.017,0.2,0.006,0.01,4,24.2,94.7,ESE,0.9
H03,2020,7,18,9,0.001,0.002,0.019,0.2,0.005,0.008,2,25.1,90.3,SE,0.5
H03,2020,7,18,10,0.001,0.004,0.024,0.2,0.003,0.007,3,26,86.7,ESE,1.9
H03,2020,7,18,11,0.001,0.008,0.029,0.2,0.003,0.005,6,27.6,77.8,ESE,1.4
H03,2020,7,18,12,0.001,0.014,0.034,0.2,0.002,0.005,6,29.3,70.3,SE,1.4
H03,2020,7,18,13,0.001,0.012,0.038,0.2,0.002,0.004,5,29.6,67.5,SE,1.4
H03,2020,7,18,14,0.001,0.009,0.042,0.2,0.002,0.004,3,30.4,62.3,SSE,2.2
H03,2020,7,18,15,0.001,0.009,0.045,0.2,0.002,0.004,4,31.3,57,SSE,2.2
H03,2020,7,18,16,0.001,0.012,0.042,0.2,0.002,0.004,4,30,62,SSE,1.8
H03,2020,7,18,17,0.001,0.009,0.043,0.2,0.001,0.004,6,28.4,67.4,SSE,1.8
H03,2020,7,18,18,0.002,0.013,0.044,0.2,0.002,0.004,8,27.6,72.9,SE,1.2
H03,2020,7,18,19,0.001,0.015,0.04,0.2,0.001,0.004,10,27,76.9,ESE,0.9
H03,2020,7,18,20,0.001,0.014,0.038,0.2,0.001,0.004,8,26.4,79.7,ESE,1
H03,2020,7,18,21,0.001,0.017,0.036,0.2,0.001,0.004,10,26.1,82.7,ESE,0.9
H03,2020,7,18,22,0.001,0.018,0.036,0.2,0.001,0.004,7,25.8,84.7,ESE,1
H03,2020,7,18,23,0.001,0.018,0.035,0.2,0.001,0.004,7,25.8,84.4,E,0.6
H03,2020,7,18,24,0.001,0.019,0.03,0.2,0.001,0.005,8,25.8,83.3,ENE,0.4
H03,2020,7,19,1,0.001,0.017,0.029,0.2,0,0.005,8,25.7,82.1,E,0.6
H03,2020,7,19,2,0.001,0.018,0.025,0.2,0,0.005,9,25.5,82.6,NNE,0.6
H03,2020,7,19,3,0.002,0.016,0.017,0.2,0.001,0.005,10,25.4,79.6,CALM,0.2
H03,2020,7,19,4,0.001,0.019,0.021,0.2,0.001,0.005,10,25.1,83,NE,0.3
H03,2020,7,19,5,0.001,0.021,0.016,0.2,0,0.006,10,24.8,83.9,NW,1.3
H03,2020,7,19,6,0.001,0.019,0.009,0.3,0.001,0.007,10,25.1,82.6,N,0.9
H03,2020,7,19,7,0.001,0.022,0.011,0.3,0.003,0.007,11,25.4,78.2,NE,0.8
H03,2020,7,19,8,0.001,0.02,0.013,0.3,0.003,0.005,11,26,72.3,NE,0.4
H03,2020,7,19,9,0.002,0.021,0.025,0.2,0.002,0.004,11,27.6,65.9,NNW,0.8
H03,2020,7,19,10,0.001,0.021,0.037,0.2,0.001,0.003,11,30.9,52.8,SSE,1.4
H03,2020,7,19,11,0.001,0.018,0.044,0.2,0.001,0.003,8,30.8,50,SSW,1.2
H03,2020,7,19,12,0.001,0.021,0.051,0.2,0,0.003,11,33,49.5,S,2
H03,2020,7,19,13,0.002,0.028,0.069,0.3,0.001,0.005,13,33.3,48.2,SSE,1.6
H03,2020,7,19,14,0.002,0.024,0.074,0.3,0.001,0.005,17,33.4,44.4,S,1.7
H03,2020,7,19,15,0.002,0.022,0.072,0.2,0.001,0.005,14,34.5,41.7,SSE,1.5
H03,2020,7,19,16,0.002,0.017,0.066,0.2,0.001,0.004,12,33.9,44.3,SSE,1.6
H03,2020,7,19,17,0.002,0.018,0.057,0.2,0.001,0.005,14,31.7,54.8,S,2.5
H03,2020,7,19,18,0.001,0.018,0.051,0.2,0.001,0.006,11,30.7,55.6,S,1.9
H03,2020,7,19,19,0.001,0.017,0.051,0.2,0.001,0.006,11,29.6,64.6,SE,0.9
H03,2020,7,19,20,0.001,0.018,0.047,0.2,0.001,0.006,11,28.8,68.4,SE,0.6
H03,2020,7,19,21,0.001,0.021,0.04,0.2,0.001,0.005,11,27.8,74.6,ESE,0.9
H03,2020,7,19,22,0.001,0.022,0.034,0.2,0.001,0.007,11,27.4,78.4,ESE,0.5
H03,2020,7,19,23,0.001,0.021,0.03,0.2,0.001,0.007,11,27.5,75.6,E,0.6
H03,2020,7,19,24,0.001,0.024,0.027,0.2,0.001,0.006,11,26.9,77.1,ENE,0.5
H03,2020,7,20,1,0.001,0.024,0.022,0.2,0.001,0.009,12,26.2,79,ENE,0.5
H03,2020,7,20,2,0.001,0.02,0.023,0.2,0.001,0.008,12,26.3,75.8,CALM,0.2
H03,2020,7,20,3,0.001,0.021,0.019,0.2,0.002,0.009,12,26.1,76.7,NE,0.4
H03,2020,7,20,4,0.001,0.025,0.011,0.2,0.005,0.014,13,26,79.8,NNE,0.3
H03,2020,7,20,5,0.002,0.025,0.005,0.3,0.011,0.017,15,25.5,80.6,NNW,0.8
H03,2020,7,20,6,0.001,0.026,0.007,0.3,0.003,0.014,14,25.7,78.4,N,1.1
H03,2020,7,20,7,0.001,0.027,0.008,0.4,0.013,0.016,14,26.7,73.2,NNW,0.5
H03,2020,7,20,8,0.001,0.026,0.012,0.4,0.009,0.019,16,27.3,70.5,NNW,1.3
H03,2020,7,20,9,0.002,0.031,0.022,0.4,0.01,0.018,18,30.3,57.6,NNW,1.5
H03,2020,7,20,10,0.002,0.032,0.045,0.3,0.005,0.016,19,32.2,48.1,WNW,1.2
H03,2020,7,20,11,0.002,0.026,0.066,0.3,0.003,0.013,19,33.3,46.6,NNW,1.3
H03,2020,7,20,12,0.002,0.031,0.077,0.3,0.002,0.011,22,34.3,43,NNW,1.5
H03,2020,7,20,13,0.003,0.033,0.089,0.4,0.001,0.01,19,35.3,42.5,SW,1.6
H03,2020,7,20,14,0.004,0.038,0.079,0.5,0.001,0.011,23,35.3,42.7,SSW,1.2
H03,2020,7,20,15,0.003,0.036,0.077,0.4,0.001,0.008,20,35.8,43.1,WSW,1
H03,2020,7,20,16,0.003,0.034,0.08,0.3,0.001,0.008,20,35.3,44.8,SSW,1.6
H03,2020,7,20,17,0.002,0.043,0.077,0.3,0.001,0.008,21,35.2,49.1,SSW,1.7
H03,2020,7,20,18,0.002,0.031,0.056,0.3,0.002,0.013,19,32.2,55.2,ESE,0.8
H03,2020,7,20,19,0.002,0.029,0.054,0.4,0.002,0.015,17,30.5,68.5,E,0.9
H03,2020,7,20,20,0.002,0.043,0.068,0.4,0.001,0.014,22,29.3,72.3,ESE,0.9
H03,2020,7,20,21,0.002,0.045,0.065,0.4,0.001,0.013,25,28.9,73.2,SE,0.5
H03,2020,7,20,22,0.002,0.035,0.062,0.3,0.001,0.011,22,28.4,71.7,E,0.7
H03,2020,7,20,23,0.002,0.036,0.057,0.3,0.001,0.01,20,28.2,74.6,ESE,0.4
H03,2020,7,20,24,0.001,0.04,0.042,0.3,0.001,0.012,18,27.9,78,E,0.5
H03,2020,7,21,1,0.001,0.039,0.026,0.3,0.002,0.013,18,27.3,81.7,NE,0.4
H03,2020,7,21,2,0.001,0.043,0.014,0.3,0.004,0.021,19,27.3,82.8,N,0.3
H03,2020,7,21,3,0.001,0.042,0.012,0.3,0.001,0.019,18,27,83.2,NNW,0.4
H03,2020,7,21,4,0.001,0.041,0.006,0.4,0.004,0.021,18,26.7,84.2,NW,0.7
H03,2020,7,21,5,0.001,0.04,0.004,0.4,0.003,0.018,20,26.6,83.6,NNW,0.6
H03,2020,7,21,6,0.001,0.044,0.003,0.4,0.032,0.021,20,27.2,82,NE,0.4
H03,2020,7,21,7,0.001,0.046,0.006,0.4,0.023,0.018,22,27.8,77.6,ENE,0.3
H03,2020,7,21,8,0.002,0.053,0.012,0.4,0.014,0.02,24,29.2,69.8,ESE,0.4
H03,2020,7,21,9,0.002,0.058,0.023,0.5,0.012,0.023,25,30.7,58.2,SSW,0.6
H03,2020,7,21,10,0.003,0.061,0.053,0.4,0.004,0.02,25,31.1,60.4,S,1
H03,2020,7,21,11,0.002,0.059,0.073,0.4,0.002,0.015,27,32.8,55.7,SSE,1.5
H03,2020,7,21,12,0.002,0.044,0.077,0.3,0.002,0.015,23,33.4,53.7,S,2.3
H03,2020,7,21,13,0.002,0.044,0.082,0.3,0.002,0.014,24,34.4,50.9,S,2.3
H03,2020,7,21,14,0.002,0.048,0.083,0.3,0.002,0.013,23,34.9,51.7,S,2.2
H03,2020,7,21,15,0.001,0.045,0.068,0.3,0.003,0.014,22,34.2,54.8,SE,1.8
H03,2020,7,21,16,0.001,0.037,0.063,0.2,0.003,0.011,14,32,62,SSE,1.7
H03,2020,7,21,17,0.001,0.032,0.054,0.2,0.002,0.012,18,30.2,66.5,SSE,1.8
H03,2020,7,21,18,0.001,0.026,0.049,0.3,0.003,0.011,15,29.3,70.5,SSE,1.6
H03,2020,7,21,19,0.001,0.031,0.045,0.3,0.002,0.01,14,26.7,93.7,SE,1.5
H03,2020,7,21,20,0.001,0.03,0.044,0.2,0.002,0.007,14,26.9,90.8,E,1.1
H03,2020,7,21,21,0.001,0.03,0.039,0.2,0.002,0.009,14,27,88.2,SE,0.9
H03,2020,7,21,22,0.001,0.028,0.035,0.2,0.001,0.008,12,26.6,88.3,ESE,0.9
H03,2020,7,21,23,0.001,0.028,0.036,0.2,0.001,0.006,12,26.4,92.6,ESE,0.7
H03,2020,7,21,24,0.001,0.028,0.033,0.2,0.001,0.009,13,26.1,92.2,NE,0.5
H03,2020,7,22,1,0.001,0.031,0.033,0.2,0.001,0.01,16,25.4,97.6,ESE,0.9
H03,2020,7,22,2,0.001,0.029,0.033,0.2,0.001,0.009,13,25.1,99,NNW,2.1
H03,2020,7,22,3,0.001,0.024,0.032,0.2,0.001,0.012,11,25.4,98.4,E,0.3
H03,2020,7,22,4,0.001,0.014,0.031,0.2,0.001,0.011,6,25.4,96.5,NNW,0.3
H03,2020,7,22,5,0.001,0.011,0.023,0.2,0.004,0.018,6,25.5,95.1,NNE,0.4
H03,2020,7,22,6,0.001,0.015,0.015,0.3,0.007,0.023,8,25.4,92.2,NNW,0.3
H03,2020,7,22,7,0.001,0.015,0.025,0.3,0.003,0.014,8,26.2,84.7,NW,0.8
H03,2020,7,22,8,0.002,0.014,0.028,0.3,0.006,0.014,8,28.1,67.9,NW,1.2
H03,2020,7,22,9,0.002,0.014,0.037,0.3,0.003,0.01,8,29.7,58.5,NW,1.7
H03,2020,7,22,10,0.001,0.013,0.047,0.2,0.002,0.007,5,30.6,52.6,NW,1.7
H03,2020,7,22,11,0.001,0.011,0.054,0.3,0.002,0.008,2,31.5,48.2,NW,1.2
H03,2020,7,22,12,0.002,0.009,0.056,0.3,0.003,0.007,8,32.3,43.2,NW,1.7
H03,2020,7,22,13,0.002,0.01,0.059,0.3,0.002,0.007,6,34.3,43.3,WNW,1.3
H03,2020,7,22,14,0.003,0.014,0.061,0.3,0.001,0.007,7,34.6,39.7,W,1.3
H03,2020,7,22,15,0.002,0.009,0.053,0.2,0.001,0.008,7,34.7,35.2,SW,1.6
H03,2020,7,22,16,0.002,0.013,0.052,0.2,0.001,0.007,5,34.1,32.8,WSW,1.4
H03,2020,7,22,17,0.002,0.006,0.051,0.2,0.001,0.006,7,33.4,40.1,SSW,1.6
H03,2020,7,22,18,0.002,0.01,0.044,0.2,0.001,0.009,8,32,42.6,WSW,0.8
H03,2020,7,22,19,0.002,0.008,0.039,0.2,0.001,0.011,5,30.3,46.6,SW,1
H03,2020,7,22,20,0.002,0.006,0.036,0.2,0.001,0.009,3,29.7,45.9,SW,0.8
H03,2020,7,22,21,0.003,0.008,0.03,0.4,0.001,0.015,6,29.5,46.1,NW,1.1
H03,2020,7,22,22,0.002,0.006,0.03,0.3,0,0.014,6,29.4,44.1,NW,1.4
H03,2020,7,22,23,0.002,0.007,0.04,0.2,0,0.007,4,28.9,46,NW,0.5
H03,2020,7,22,24,0.002,0.007,0.036,0.2,0,0.009,6,28.5,50.7,NW,1